Location: Bannatyne
(13.0833°N, 59.5333°W)
Time: 01:01:08
(UTC+00:00)

Explorer 7 - Pass Details

Date: 25 January 2020
Orbit: 485 x 679 km, 50.3° (Epoch: 20 February)

Event Time Altitude Azimuth Distance (km) Brightness Sun altitude
Rises 11:49:39 0° 293° (WNW) 2,756 9.8 18.2°
Reaches altitude 10° 11:52:38 10° 270° (W) 1,903 9.1 18.9°
Maximum altitude 11:55:13 15° 233° (SW) 1,613 9.0 19.5°
Drops below altitude 10° 11:57:53 10° 197° (SSW) 1,976 9.8 20.0°
Sets 12:01:06 0° 175° (S) 2,923 11.0 20.7°
